Location: Unspecified
(35.6961°N, 0.0000°E)
Time: 01:10:02
(UTC+00:00)

Vanguard 2 Rocket - Pass Details

Date: 03 June 2019
Orbit: 554 x 3326 km, 32.9° (Epoch: 15 June)

Event Time Altitude Azimuth Distance (km) Brightness Sun altitude
Rises 05:15:07 0° 267° (W) 7,212 10.9 4.7°
Reaches altitude 10° 05:19:52 10° 267° (W) 6,271 10.6 5.5°
Maximum altitude 05:40:26 81° 184° (S) 2,971 9.6 9.4°
Drops below altitude 10° 05:54:52 10° 99° (E) 4,635 11.8 12.2°
Sets 05:57:48 0° 99° (E) 5,332 12.0 12.7°
